Location: Christianberg
(48.9086°N, 14.0209°E)
Time: 21:09:50
(UTC+00:00)

NPP - Pass Details

Date: 20 June 2021
Orbit: 826 x 828 km, 98.7° (Epoch: 04 August)

Event Time Altitude Azimuth Distance (km) Brightness Sun altitude
Rises 01:23:32 0° 12° (NNE) 3,381 8.3 -11.4°
Reaches altitude 10° 01:25:55 10° 9° (N) 2,443 7.3 -11.2°
Maximum altitude 01:31:14 62° 290° (WNW) 932 3.9 -10.7°
Enters shadow 01:35:57 13° 212° (SSW) 2,202 5.2 -10.3°
